Hourly Data Report for June 05, 2012

HALIFAX STANFIELD INT'L A
NOVA SCOTIA

44°52'48.060" N
63°30'00.050" W
145.40 m
8202250
71395
YHZ

Download Data

Hourly Data (June 2012)
Hourly Data Report for June 5, 2012
TIME
LST
Temp Definition
°C
Dew Point Definition
°C
Rel Hum Definition
%
Precip. Amount Definition
mm

Wind Dir Definition
10's deg

Wind Spd Definition
km/h
Visibility Definition
km
Stn Press Definition
kPa
Hmdx Definition


Wind Chill Definition


Weather Definition


00:00 8.0 7.4 96   1 22 3.2 98.81     Rain Showers, Fog
01:00 7.9 7.4 97   36 13 3.2 98.80     Rain Showers, Fog
02:00 7.7 7.4 98   36 17 2.4 98.81     Rain Showers, Fog
03:00 7.7 7.4 98   36 13 2.4 98.80     Rain Showers, Fog
04:00 7.8 7.4 97   36 15 2.4 98.81     Rain Showers, Fog
05:00 7.8 7.4 97   36 22 2.4 98.82     Rain Showers, Fog
06:00 7.9 7.5 97   1 17 2.4 98.84     Rain Showers, Fog
07:00 8.4 7.9 97   36 22 2.4 98.83     Rain Showers, Fog
08:00 8.7 8.0 95   2 22 12.9 98.87     Cloudy
09:00 9.0 7.8 92   2 19 19.3 98.88     Cloudy
10:00 9.2 7.8 91   2 20 19.3 98.93     Rain Showers
11:00 9.8 8.3 90   2 28 6.4 98.95     Rain Showers, Fog
12:00 9.8 8.3 90   3 26 16.1 98.98     Rain Showers
13:00 10.5 8.7 89   36 22 19.3 98.98     Rain Showers
14:00 10.0 8.2 89   1 28 24.1 99.00     Rain Showers
15:00 9.9 7.9 87   1 19 24.1 99.01     Rain Showers
16:00 9.8 7.8 87   2 22 24.1 99.01     Rain Showers
17:00 9.4 7.5 88   1 17 16.1 99.00     Rain Showers
18:00 8.9 7.6 92   1 19 9.7 99.01     Rain Showers, Fog
19:00 8.5 7.4 93   2 20 12.9 99.04     Rain Showers
20:00 8.2 7.2 93   36 17 16.1 99.08     Rain Showers
21:00 8.1 7.1 93   36 17 16.1 99.10     Drizzle
22:00 8.0 7.0 93   35 15 19.3 99.07     Drizzle
23:00 7.9 6.9 93   35 20 24.1 99.04     Cloudy

Notes on Data Quality.

Legend

  • E = Estimated
  • M = Missing
  • NA = Not Available*
  • [empty] = Indicates an unobserved value
Date modified: